This is the latest recevied weather packets stored in our database for station/object WX4FUN-13. If no packets are shown the sender has not sent any weather packets the latest 10 day(s).
| Time | Temp. | Humidity | Pressure | Rain* | Wind** | Luminosity | Snow |
|---|---|---|---|---|---|---|---|
| 1777766151 | 12.22° C | 46% | 1011.1 hPa | 0 mm | - | 0 W/m² | - |
| 1777765551 | 12.78° C | 45% | 1011.1 hPa | 0 mm | - | 2 W/m² | - |
| 1777764951 | 12.78° C | 44% | 1011 hPa | 0 mm | - | 6 W/m² | - |
| 1777764348 | 12.78° C | 45% | 1010.8 hPa | 0 mm | - | 12 W/m² | - |
| 1777763749 | 13.33° C | 43% | 1010.8 hPa | 0 mm | - | 14 W/m² | - |
| 1777763148 | 13.33° C | 46% | 1010.8 hPa | 0 mm | - | 25 W/m² | - |
| 1777762547 | 13.33° C | 46% | 1010.8 hPa | 0 mm | - | 44 W/m² | - |
| 1777761944 | 13.33° C | 46% | 1010.6 hPa | 0 mm | - | 60 W/m² | - |
| 1777761344 | 13.89° C | 46% | 1010.5 hPa | 0 mm | - | 91 W/m² | - |
| 1777760741 | 13.89° C | 48% | 1010.5 hPa | 0 mm | - | 97 W/m² | - |
| 1777760143 | 13.89° C | 48% | 1010.4 hPa | 0 mm | - | 114 W/m² | - |
| 1777759543 | 13.33° C | 50% | 1010.4 hPa | 0 mm | - | 71 W/m² | - |
| 1777758943 | 13.89° C | 51% | 1010.4 hPa | 0 mm | - | 70 W/m² | - |
| 1777758340 | 13.89° C | 52% | 1010.4 hPa | 0 mm | - | 85 W/m² | - |
| 1777757740 | 13.89° C | 52% | 1010.4 hPa | 0 mm | - | 97 W/m² | - |
| 1777757140 | 14.44° C | 57% | 1010.4 hPa | 0 mm | - | 110 W/m² | - |
| 1777756542 | 15° C | 61% | 1010.3 hPa | 0 mm | - | 71 W/m² | - |
| 1777755938 | 16.11° C | 63% | 1010.4 hPa | 0 mm | - | 113 W/m² | - |
| 1777755336 | 15.56° C | 65% | 1010.5 hPa | 0 mm | - | 476 W/m² | - |
| 1777754735 | 15° C | 64% | 1010.6 hPa | 0 mm | - | 594 W/m² | - |
| 1777754135 | 15.56° C | 67% | 1010.6 hPa | 0 mm | - | 538 W/m² | - |
| 1777753534 | 15.56° C | 68% | 1010.6 hPa | 0 mm | - | 203 W/m² | - |
| 1777752935 | 14.44° C | 74% | 1010.9 hPa | 0 mm | - | 624 W/m² | - |
| 1777752333 | 13.33° C | 74% | 1011 hPa | 0 mm | - | 171 W/m² | - |
| 1777751734 | 13.33° C | 76% | 1011.1 hPa | 0 mm | - | 199 W/m² | - |
* Rain latest hour (hover to see other rain measurements)
** Current wind speed in m/s (hover to see current wind gust speed)